EW7774 Weather Reports


Display with metric or nautical units.
time (UTC)temp
F
wind
direction
speed
MPH
gust
MPH
rain 1hr
in
rain 24hr
in
rain mn
in
humidity
%
barometer
mb
20260508134324 57 185 0.0 4.0 0.00 0.00 0.00 58 1015.5
20260508134025 57 0 0.0 4.0 0.00 0.00 0.00 55 1015.9
20260508133828 57 296 1.0 4.0 0.00 0.00 0.00 56 1015.7
20260508133526 56 0 1.0 4.0 0.00 0.00 0.00 57 1015.9
20260508133337 57 208 1.0 4.0 0.00 0.00 0.00 55 1015.6
20260508133109 56 0 0.0 4.0 0.00 0.00 0.00 56 1015.9
20260508132843 56 308 1.0 4.0 0.00 0.00 0.00 58 1015.6
20260508132526 55 213 0.0 6.0 0.00 0.00 0.00 58 1016.0
20260508132327 56 231 0.0 6.0 0.00 0.00 0.00 59 1015.8
20260508132025 55 0 1.0 6.0 0.00 0.00 0.00 60 1016.1
20260508131834 55 248 1.0 6.0 0.00 0.00 0.00 60 1015.9
20260508131547 54 0 0.0 5.0 0.00 0.00 0.00 63 1016.1
20260508131318 55 296 0.0 5.0 0.00 0.00 0.00 66 1015.9
20260508131029 54 0 0.0 5.0 0.00 0.00 0.00 65 1016.3
20260508130821 54 203 1.0 5.0 0.00 0.00 0.00 62 1016.0
20260508130526 54 0 0.0 5.0 0.00 0.00 0.00 63 1016.3
20260508130326 54 286 0.0 2.0 0.00 0.00 0.00 69 1016.1
20260508130041 53 0 0.0 2.0 0.00 0.00 0.00 66 1016.3
20260508125830 53 310 0.0 2.0 0.00 0.00 0.00 68 1016.0
20260508125526 53 0 0.0 2.0 0.00 0.00 0.00 67 1016.3
20260508125334 53 303 0.0 2.0 0.00 0.00 0.00 66 1016.0
20260508125022 52 0 0.0 4.0 0.00 0.00 0.00 71 1016.2
20260508124838 52 4 0.0 4.0 0.00 0.00 0.00 68 1016.1
20260508124539 51 0 0.0 4.0 0.00 0.00 0.00 69 1016.4
20260508124324 51 194 0.0 4.0 0.00 0.00 0.00 70 1016.1
20260508124027 50 0 0.0 2.0 0.00 0.00 0.00 71 1016.3
20260508123829 50 193 0.0 2.0 0.00 0.00 0.00 77 1016.0
20260508123528 49 0 0.0 0.0 0.00 0.00 0.00 78 1016.2
20260508123354 49 194 0.0 0.0 0.00 0.00 0.00 81 1015.9
20260508123058 47 0 0.0 0.0 0.00 0.00 0.00 82 1016.1
20260508122837 47 242 0.0 0.0 0.00 0.00 0.00 84 1015.9
20260508122525 47 0 0.0 0.0 0.00 0.00 0.00 88 1016.1
20260508122328 47 241 0.0 0.0 0.00 0.00 0.00 89 1015.8
20260508122026 46 0 0.0 0.0 0.00 0.00 0.00 89 1016.1
20260508121815 46 241 0.0 0.0 0.00 0.00 0.00 91 1015.8
20260508121544 45 0 0.0 0.0 0.00 0.00 0.00 91 1016.0
20260508121320 45 241 0.0 0.0 0.00 0.00 0.00 92 1015.6
20260508121027 44 0 0.0 0.0 0.00 0.00 0.00 93 1016.0
20260508120824 45 241 0.0 0.0 0.00 0.00 0.00 93 1015.6
20260508120526 44 0 0.0 0.0 0.00 0.00 0.00 93 1016.0
20260508120328 44 242 0.0 0.0 0.00 0.00 0.00 94 1015.7
20260508120043 43 0 0.0 0.0 0.00 0.00 0.00 93 1015.9
20260508115832 43 188 0.0 0.0 0.00 0.00 0.00 94 1015.6
20260508115526 42 0 0.0 0.0 0.00 0.00 0.00 93 1016.0
20260508115319 43 188 0.0 0.0 0.00 0.00 0.00 94 1015.6
20260508115026 42 0 0.0 0.0 0.00 0.00 0.00 93 1015.8
20260508114823 42 188 0.0 0.0 0.00 0.00 0.00 94 1015.5
20260508114540 42 0 0.0 0.0 0.00 0.00 0.00 94 1015.8
20260508114328 42 188 0.0 0.0 0.00 0.00 0.00 94 1015.5
20260508114026 41 0 0.0 0.0 0.00 0.00 0.00 93 1015.8
20260508113832 42 188 0.0 0.0 0.00 0.00 0.00 94 1015.4
20260508113527 41 0 0.0 0.0 0.00 0.00 0.00 93 1015.7
20260508113323 41 188 0.0 0.0 0.00 0.00 0.00 94 1015.4
20260508113050 40 0 0.0 0.0 0.00 0.00 0.00 93 1015.7
20260508112848 41 188 0.0 0.0 0.00 0.00 0.00 94 1015.4
20260508112529 40 0 0.0 0.0 0.00 0.00 0.00 93 1015.6
20260508112334 40 188 0.0 0.0 0.00 0.00 0.00 94 1015.3
20260508112022 40 0 0.0 0.0 0.00 0.00 0.00 93 1015.5
20260508111818 40 188 0.0 0.0 0.00 0.00 0.00 93 1015.3
20260508111543 39 0 0.0 0.0 0.00 0.00 0.00 93 1015.5
20260508111322 40 188 0.0 0.0 0.00 0.00 0.00 93 1015.2
20260508111023 39 0 0.0 0.0 0.00 0.00 0.00 92 1015.3
20260508110826 40 188 327.0 0.0 0.00 0.00 0.00 93 1015.1
20260508110526 39 0 0.0 0.0 0.00 0.00 0.00 92 1015.2
20260508110313 39 0.0 0.0 0.00 0.00 0.00 93 1015.0
20260508110053 39 0 0.0 0.0 0.00 0.00 0.00 92 1015.1
20260508105820 39 0.0 0.0 0.00 0.00 0.00 92 1014.9
20260508105526 39 0 0.0 0.0 0.00 0.00 0.00 92 1015.1
20260508105326 39 0.0 0.0 0.00 0.00 0.00 92 1014.9
20260508105026 39 0.0 0.0 0.00 0.00 0.00 91 1015.0
20260508104834 39 0.0 0.0 0.00 0.00 0.00 92 1014.8
20260508104539 39 0.0 0.0 0.00 0.00 0.00 91 1015.0
20260508104319 39 0.0 0.0 0.00 0.00 0.00 92 1014.8
20260508104025 39 0.0 0.0 0.00 0.00 0.00 91 1015.0
20260508103831 39 0.0 0.0 0.00 0.00 0.00 91 1014.7
20260508103526 39 0.0 0.0 0.00 0.00 0.00 91 1015.0
20260508103336 39 0.0 0.0 0.00 0.00 0.00 91 1014.7
20260508103041 39 0.0 0.0 0.00 0.00 0.00 90 1015.0
20260508102823 39 0.0 0.0 0.00 0.00 0.00 91 1014.8
20260508102526 39 0.0 0.0 0.00 0.00 0.00 91 1015.0
20260508102330 39 0.0 0.0 0.00 0.00 0.00 91 1014.8
20260508102027 39 0.0 0.0 0.00 0.00 0.00 91 1015.0
20260508101838 39 0.0 0.0 0.00 0.00 0.00 91 1014.7
20260508101538 39 0.0 0.0 0.00 0.00 0.00 90 1014.9
20260508101324 40 0.0 0.0 0.00 0.00 0.00 91 1014.7
20260508101026 39 0.0 0.0 0.00 0.00 0.00 90 1014.9
20260508100832 40 0.0 0.0 0.00 0.00 0.00 91 1014.6
20260508100526 39 0.0 0.0 0.00 0.00 0.00 90 1015.0
20260508100326 40 0.0 0.0 0.00 0.00 0.00 91 1014.7
20260508100037 39 0.0 0.0 0.00 0.00 0.00 90 1014.9
20260508095832 40 0.0 0.0 0.00 0.00 0.00 91 1014.6
20260508095526 39 0.0 0.0 0.00 0.00 0.00 90 1014.8
20260508095317 40 0.0 0.0 0.00 0.00 0.00 91 1014.5
20260508095025 40 0.0 0.0 0.00 0.00 0.00 90 1014.7
20260508094821 40 0.0 0.0 0.00 0.00 0.00 90 1014.4
20260508094537 40 0.0 0.0 0.00 0.00 0.00 90 1014.7
20260508094346 40 0.0 0.0 0.00 0.00 0.00 90 1014.4
20260508094025 40 0.0 0.0 0.00 0.00 0.00 90 1014.7
20260508093816 40 0.0 0.0 0.00 0.00 0.00 90 1014.4
20260508093526 40 0.0 0.0 0.00 0.00 0.00 89 1014.7
20260508093324 41 0.0 0.0 0.00 0.00 0.00 90 1014.3
20260508093044 40 0.0 0.0 0.00 0.00 0.00 89 1014.7
20260508092829 41 0.0 0.0 0.00 0.00 0.00 89 1014.3
20260508092527 40 0.0 0.0 0.00 0.00 0.00 89 1014.6
20260508092332 41 0.0 0.0 0.00 0.00 0.00 89 1014.2
20260508092026 40 0.0 0.0 0.00 0.00 0.00 89 1014.5
20260508091816 41 0.0 0.0 0.00 0.00 0.00 89 1014.2
20260508091551 41 0.0 0.0 0.00 0.00 0.00 88 1014.6
20260508091321 41 0.0 0.0 0.00 0.00 0.00 89 1014.1
20260508091026 41 0.0 0.0 0.00 0.00 0.00 88 1014.5
20260508090825 41 0.0 0.0 0.00 0.00 0.00 89 1014.1
20260508090526 41 0.0 0.0 0.00 0.00 0.00 88 1014.5
20260508090333 41 0.0 0.0 0.00 0.00 0.00 89 1014.1
20260508090057 41 0.0 0.0 0.00 0.00 0.00 88 1014.6
20260508085817 42 0.0 0.0 0.00 0.00 0.00 89 1014.1
20260508085525 41 0.0 0.0 0.00 0.00 0.00 88 1014.5
20260508085342 42 0.0 0.0 0.00 0.00 0.00 89 1014.1
20260508085025 41 0.0 0.0 0.00 0.00 0.00 89 1014.5
20260508084825 42 0.0 0.0 0.00 0.00 0.00 89 1014.0
20260508084539 41 0.0 0.0 0.00 0.00 0.00 89 1014.4
20260508084317 42 0.0 0.0 0.00 0.00 0.00 89 1014.0
20260508084028 41 0.0 0.0 0.00 0.00 0.00 88 1014.3
20260508083824 42 0.0 0.0 0.00 0.00 0.00 89 1013.9
20260508083525 41 0.0 0.0 0.00 0.00 0.00 88 1014.2
20260508083332 42 0.0 0.0 0.00 0.00 0.00 89 1013.8
20260508083040 42 0.0 0.0 0.00 0.00 0.00 88 1014.2
20260508082819 42 0.0 0.0 0.00 0.00 0.00 89 1013.8
20260508082529 42 0.0 0.0 0.00 0.00 0.00 88 1014.2
20260508082323 42 0.0 0.0 0.00 0.00 0.00 89 1013.8
20260508082028 42 0.0 0.0 0.00 0.00 0.00 89 1014.1
20260508081827 42 0.0 0.0 0.00 0.00 0.00 89 1013.6
20260508081543 42 0.0 0.0 0.00 0.00 0.00 89 1014.0
20260508081314 42 0.0 0.0 0.00 0.00 0.00 89 1013.6
20260508081030 42 0.0 0.0 0.00 0.00 0.00 89 1014.0
20260508080823 42 0.0 0.0 0.00 0.00 0.00 90 1013.6
20260508080529 42 0.0 0.0 0.00 0.00 0.00 90 1014.0
20260508080330 42 0.0 0.0 0.00 0.00 0.00 90 1013.6
20260508080039 42 0.0 0.0 0.00 0.00 0.00 90 1013.9
20260508075817 43 0.0 0.0 0.00 0.00 0.00 91 1013.5
20260508075527 42 0.0 0.0 0.00 0.00 0.00 90 1013.9
20260508075326 43 0.0 0.0 0.00 0.00 0.00 91 1013.4
20260508075027 42 0.0 0.0 0.00 0.00 0.00 90 1013.8
20260508074833 43 0.0 0.0 0.00 0.00 0.00 91 1013.4
20260508074543 42 0.0 0.0 0.00 0.00 0.00 90 1013.8
20260508074317 43 0.0 0.0 0.00 0.00 0.00 91 1013.4
20260508074026 42 0.0 0.0 0.00 0.00 0.00 90 1013.8
20260508073845 43 0.0 0.0 0.00 0.00 0.00 91 1013.4
20260508073527 42 0.0 0.0 0.00 0.00 0.00 90 1013.7
20260508073332 43 0.0 0.0 0.00 0.00 0.00 91 1013.3
20260508073037 42 0.0 0.0 0.00 0.00 0.00 91 1013.5
20260508072819 43 0.0 0.0 0.00 0.00 0.00 91 1013.1
20260508072527 42 0.0 0.0 0.00 0.00 0.00 91 1013.5
20260508072327 43 0.0 0.0 0.00 0.00 0.00 92 1013.0
20260508072029 42 0.0 0.0 0.00 0.00 0.00 91 1013.4
20260508071814 43 0.0 0.0 0.00 0.00 0.00 92 1012.9
20260508071547 43 0.0 0.0 0.00 0.00 0.00 91 1013.3
20260508071321 43 0.0 0.0 0.00 0.00 0.00 92 1012.8
20260508071028 43 0.0 0.0 0.00 0.00 0.00 92 1013.2
20260508070825 43 0.0 0.0 0.00 0.00 0.00 92 1012.8
20260508070525 43 0.0 0.0 0.00 0.00 0.00 92 1013.2
20260508070317 43 0.0 0.0 0.00 0.00 0.00 92 1012.8
20260508070040 43 0.0 0.0 0.00 0.00 0.00 92 1013.1
20260508065825 43 0.0 0.0 0.00 0.00 0.00 92 1012.7
20260508065526 43 0.0 0.0 0.00 0.00 0.00 92 1013.1
20260508065025 43 0.0 0.0 0.00 0.00 0.00 92 1012.9
20260508064827 43 0.0 0.0 0.00 0.00 0.00 92 1012.5
20260508064539 43 0.0 0.0 0.00 0.00 0.00 92 1012.8
20260508064331 43 0.0 0.0 0.00 0.00 0.00 92 1012.5
20260508064026 43 0.0 0.0 0.00 0.00 0.00 92 1012.7
20260508063818 43 0.0 0.0 0.00 0.00 0.00 92 1012.4
20260508063526 43 0.0 0.0 0.00 0.00 0.00 91 1012.7
20260508063322 43 0.0 0.0 0.00 0.00 0.00 92 1012.3
20260508063043 43 0.0 0.0 0.00 0.00 0.00 91 1012.6
20260508062827 43 0.0 0.0 0.00 0.00 0.00 92 1012.3
20260508062525 43 0.0 0.0 0.00 0.00 0.00 91 1012.7
20260508062332 43 0.0 0.0 0.00 0.00 0.00 92 1012.4
20260508062025 43 0.0 0.0 0.00 0.00 0.00 91 1012.7
20260508061545 43 0.0 0.0 0.00 0.00 0.00 91 1012.7
20260508061330 44 0.0 0.0 0.00 0.00 0.00 92 1012.3
20260508061026 43 0.0 0.0 0.00 0.00 0.00 91 1012.6
20260508060835 44 0.0 0.0 0.00 0.00 0.00 92 1012.3
20260508060526 43 0.0 0.0 0.00 0.00 0.00 91 1012.6
20260508060319 44 0.0 0.0 0.00 0.00 0.00 91 1012.3
20260508060042 43 0.0 0.0 0.00 0.00 0.00 91 1012.7
20260508055822 44 0.0 0.0 0.00 0.03 0.00 91 1012.3
20260508055526 43 0.0 0.0 0.00 0.02 0.00 91 1012.6
20260508055314 44 0.0 0.0 0.00 0.03 0.00 91 1012.3
20260508055026 43 0.0 0.0 0.00 0.02 0.00 91 1012.6
20260508054822 44 0.0 0.0 0.00 0.03 0.00 91 1012.4
20260508054539 44 0.0 0.0 0.00 0.02 0.00 90 1012.7
20260508054329 44 0.0 0.0 0.00 0.03 0.00 91 1012.2
20260508054026 44 0.0 0.0 0.00 0.02 0.00 90 1012.6
20260508053837 44 0.0 0.0 0.00 0.03 0.00 91 1012.2
20260508053527 44 0.0 0.0 0.00 0.02 0.00 90 1012.5
20260508053323 44 0.0 0.0 0.00 0.03 0.00 90 1012.2
20260508053100 44 0.0 0.0 0.00 0.02 0.00 90 1012.5
20260508052830 44 0.0 0.0 0.00 0.03 0.00 90 1012.1
20260508052526 44 0.0 0.0 0.00 0.02 0.00 90 1012.5
20260508052337 45 0.0 0.0 0.00 0.03 0.00 90 1012.1
20260508052027 44 0.0 0.0 0.00 0.02 0.00 90 1012.4
20260508051824 45 0.0 0.0 0.00 0.03 0.00 90 1012.0
20260508051541 44 0.0 0.0 0.00 0.02 0.00 90 1012.3
20260508051352 45 0.0 0.0 0.00 0.03 0.00 90 1012.0
20260508051026 44 0.0 0.0 0.00 0.02 0.00 90 1012.3
20260508050815 45 0.0 0.0 0.00 0.03 0.00 90 1012.0
20260508050526 45 0.0 0.0 0.00 0.02 0.00 90 1012.3
20260508050343 45 0.0 0.0 0.00 0.03 0.00 90 1012.0
20260508050044 45 0.0 0.0 0.00 0.02 0.00 89 1012.3
20260508045829 45 0.0 0.0 0.00 0.17 0.00 90 1012.0
20260508045528 45 0.0 0.0 0.00 0.17 0.00 89 1012.3
20260508045337 45 0.0 0.0 0.00 0.17 0.00 90 1011.9
20260508045025 45 0.0 0.0 0.00 0.17 0.00 89 1012.2
20260508044822 46 0.0 0.0 0.00 0.17 0.00 89 1011.9
20260508044544 45 0.0 0.0 0.00 0.17 0.00 89 1012.1
20260508044334 46 0.0 0.0 0.00 0.17 0.00 89 1011.8
20260508044029 45 0.0 0.0 0.00 0.17 0.00 89 1012.1
20260508043820 46 0.0 0.0 0.00 0.17 0.00 89 1011.8
20260508043526 45 0.0 0.0 0.00 0.17 0.00 88 1012.1
20260508043327 46 0.0 0.0 0.00 0.17 0.00 89 1011.7
20260508043041 46 0.0 0.0 0.00 0.17 0.00 88 1012.0
20260508042832 46 0.0 0.0 0.00 0.17 0.00 89 1011.7
20260508042526 46 0.0 0.0 0.00 0.17 0.00 88 1012.0
20260508042336 46 0.0 0.0 0.00 0.17 0.00 88 1011.7
20260508042026 46 0.0 0.0 0.00 0.17 0.00 88 1012.0
20260508041820 47 0.0 0.0 0.00 0.17 0.00 88 1011.6
20260508041604 46 0.0 0.0 0.00 0.17 0.00 88 1011.9
20260508041327 47 0.0 0.0 0.00 0.17 0.00 88 1011.6
20260508041026 46 0.0 0.0 0.00 0.17 0.00 88 1011.9
20260508040814 47 0.0 0.0 0.00 0.17 0.00 88 1011.4
20260508040526 46 0.0 0.0 0.00 0.17 0.00 87 1011.9
20260508040321 47 0.0 0.0 0.00 0.17 0.00 88 1011.5
20260508040046 47 0.0 0.0 0.00 0.17 0.00 87 1011.8
20260508035825 47 0.0 0.0 0.00 0.17 0.17 87 1011.3
20260508035529 47 0.0 0.0 0.00 0.17 0.17 87 1011.7
20260508035313 47 0.0 0.0 0.00 0.17 0.17 87 1011.3
20260508035030 47 0.0 0.0 0.00 0.17 0.17 86 1011.6
20260508034823 48 0.0 0.0 0.00 0.17 0.17 87 1011.4
20260508034544 47 0.0 0.0 0.00 0.17 0.17 86 1011.8
20260508034332 48 0.0 0.0 0.00 0.17 0.17 86 1011.3
20260508034025 47 0.0 0.0 0.00 0.17 0.17 86 1011.7
20260508033837 48 0.0 0.0 0.00 0.17 0.17 86 1011.3
20260508033525 48 0.0 0.0 0.00 0.17 0.17 86 1011.7
20260508033321 48 0.0 0.0 0.00 0.17 0.17 86 1011.3
20260508033044 48 0.0 0.0 0.00 0.17 0.17 85 1011.6
20260508032826 49 0.0 0.0 0.00 0.17 0.17 85 1011.3
20260508032526 48 0.0 0.0 0.00 0.17 0.17 84 1011.6
20260508032334 49 0.0 0.0 0.00 0.17 0.17 85 1011.3
20260508032026 48 0.0 0.0 0.00 0.17 0.17 84 1011.6
20260508031839 49 0.0 0.0 0.00 0.17 0.17 84 1011.3
20260508031543 49 0.0 0.0 0.00 0.17 0.17 84 1011.5
20260508031322 49 0.0 0.0 0.00 0.17 0.17 84 1011.2
20260508031025 49 0.0 0.0 0.00 0.17 0.17 83 1011.6
20260508030829 49 0.0 0.0 0.00 0.17 0.17 83 1011.2
20260508030528 49 0.0 0.0 0.00 0.17 0.17 83 1011.5
20260508030315 50 0.0 0.0 0.00 0.17 0.17 83 1011.3
20260508030041 49 0.0 0.0 0.00 0.17 0.17 82 1011.5
20260508025823 50 0.0 0.0 0.00 0.17 0.17 82 1011.3
20260508025527 50 0.0 0.0 0.00 0.17 0.17 82 1011.5
20260508025314 50 0.0 0.0 0.00 0.17 0.17 82 1011.1
20260508025024 50 0.0 0.0 0.00 0.17 0.17 81 1011.4
20260508024842 50 0.0 0.0 0.00 0.17 0.17 81 1011.1
20260508024541 50 0.0 0.0 0.00 0.17 0.17 80 1011.4
20260508024325 51 0.0 0.0 0.00 0.17 0.17 81 1011.1
20260508024026 50 0.0 0.0 0.00 0.17 0.17 80 1011.4
20260508023528 50 0.0 0.0 0.00 0.17 0.17 79 1011.4
20260508023324 51 0.0 0.0 0.00 0.17 0.17 80 1011.1
20260508023037 51 0.0 0.0 0.00 0.17 0.17 79 1011.4
20260508022830 51 0.0 0.0 0.00 0.17 0.17 79 1011.1
20260508022525 51 0.0 0.0 0.00 0.17 0.17 79 1011.4
20260508022356 51 0.0 0.0 0.00 0.17 0.17 79 1011.1
20260508022027 51 0.0 0.0 0.00 0.17 0.17 78 1011.3
20260508021818 52 0.0 0.0 0.00 0.17 0.17 78 1011.1
20260508021539 51 0.0 0.0 0.00 0.17 0.17 78 1011.4
20260508021326 52 0.0 0.0 0.00 0.17 0.17 78 1011.0
20260508021025 51 0.0 0.0 0.00 0.17 0.17 78 1011.4
20260508020831 52 0.0 0.0 0.00 0.17 0.17 77 1011.0
20260508020525 52 0.0 0.0 0.00 0.17 0.17 77 1011.3
20260508020338 52 0.0 0.0 0.00 0.17 0.17 77 1011.0
20260508020048 52 0.0 0.0 0.00 0.17 0.17 77 1011.2
20260508015825 52 0.0 0.0 0.00 0.17 0.17 77 1010.9
20260508015525 52 0.0 0.0 0.00 0.17 0.17 76 1011.2
20260508015330 53 0.0 0.0 0.00 0.17 0.17 76 1010.8
20260508015026 52 0.0 0.0 0.00 0.17 0.17 76 1011.2
20260508014834 53 0.0 0.0 0.00 0.17 0.17 76 1010.8
20260508014546 52 0.0 0.0 0.00 0.17 0.17 75 1011.2
20260508014318 53 0.0 0.0 0.00 0.17 0.17 75 1010.9
20260508014027 52 0.0 0.0 0.00 0.17 0.17 75 1011.2
20260508013825 53 0.0 0.0 0.00 0.17 0.17 74 1010.7
20260508013530 53 0.0 0.0 0.00 0.17 0.17 73 1011.1
20260508013330 53 0.0 0.0 0.00 0.17 0.17 73 1010.8
20260508013041 53 0.0 0.0 0.00 0.17 0.17 73 1011.1
20260508012836 54 0.0 0.0 0.00 0.17 0.17 73 1010.7
20260508012526 53 0.0 0.0 0.00 0.17 0.17 73 1011.0
20260508012322 54 0.0 0.0 0.00 0.17 0.17 73 1010.6
20260508012026 53 0.0 0.0 0.00 0.17 0.17 72 1010.9
20260508011826 54 0.0 0.0 0.00 0.17 0.17 73 1010.6
20260508011549 53 0.0 0.0 0.00 0.17 0.17 72 1011.0
20260508011331 54 0.0 0.0 0.00 0.17 0.17 72 1010.6
20260508011026 54 0.0 0.0 0.00 0.17 0.17 72 1010.9
20260508010818 54 0.0 0.0 0.00 0.17 0.17 72 1010.5
20260508010526 54 0.0 0.0 0.00 0.17 0.17 72 1010.8
20260508010325 54 0.0 0.0 0.00 0.17 0.17 73 1010.4
20260508010038 54 0.0 0.0 0.00 0.17 0.17 72 1010.8
20260508005813 54 0.0 0.0 0.00 0.17 0.17 72 1010.3
20260508005525 54 0.0 0.0 0.00 0.17 0.17 71 1010.7
20260508005321 54 0.0 0.0 0.00 0.17 0.17 72 1010.3
20260508005028 54 0.0 0.0 0.00 0.17 0.17 71 1010.6
20260508004828 55 0.0 0.0 0.00 0.17 0.17 71 1010.2
20260508004537 54 0.0 0.0 0.00 0.17 0.17 71 1010.5
20260508004318 55 0.0 0.0 0.00 0.17 0.17 71 1010.1
20260508004026 55 0.0 0.0 0.00 0.17 0.17 70 1010.5
20260508003525 55 0.0 0.0 0.00 0.17 0.17 70 1010.4
20260508003044 55 0.0 0.0 0.00 0.17 0.17 69 1010.3
20260508002526 55 0.0 0.0 0.00 0.17 0.17 69 1010.2
20260508002026 55 0.0 0.0 0.00 0.17 0.17 68 1010.1
20260508001540 56 0.0 0.0 0.00 0.17 0.17 68 1010.1
20260508001026 56 0.0 0.0 0.00 0.17 0.17 67 1010.1
20260508000526 56 0.0 0.0 0.00 0.17 0.17 68 1010.0
20260508000039 56 0.0 0.0 0.00 0.17 0.17 67 1009.9
20260507235526 57 0.0 0.0 0.00 0.17 0.17 67 1009.8
20260507235026 57 0.0 0.0 0.00 0.17 0.17 66 1009.7
20260507234539 57 0.0 0.0 0.00 0.17 0.17 65 1009.8
20260507234026 57 0 0.0 3.0 0.00 0.17 0.17 64 1009.6
20260507233526 58 0 0.0 3.0 0.00 0.17 0.17 64 1009.6
20260507233054 58 0 0.0 3.0 0.00 0.17 0.17 64 1009.5
20260507232525 58 0 0.0 3.0 0.00 0.17 0.17 64 1009.5
20260507232025 58 0 0.0 5.0 0.00 0.17 0.17 62 1009.4
20260507231539 58 0 0.0 7.0 0.00 0.17 0.17 62 1009.4
20260507231025 58 0 0.0 7.0 0.00 0.17 0.17 61 1009.3
20260507230526 58 202 0.0 7.0 0.00 0.17 0.17 62 1009.2
20260507230043 58 0 1.0 7.0 0.00 0.17 0.17 61 1009.2
20260507225527 58 199 0.0 8.0 0.00 0.17 0.17 61 1009.1
20260507225029 59 0 0.0 8.0 0.00 0.17 0.17 60 1009.0
20260507224541 59 0 1.0 9.0 0.00 0.17 0.17 60 1009.1
20260507224026 59 0 0.0 9.0 0.00 0.17 0.17 59 1008.8
20260507223529 59 174 0.0 5.0 0.00 0.17 0.17 59 1008.9
20260507223040 59 0 0.0 8.0 0.00 0.17 0.17 60 1008.8
20260507222528 60 0 0.0 8.0 0.00 0.17 0.17 59 1008.7
20260507222026 60 155 0.0 8.0 0.00 0.17 0.17 61 1008.6
20260507221538 60 0 1.0 7.0 0.00 0.17 0.17 60 1008.7
20260507221026 60 0 0.0 9.0 0.00 0.17 0.17 59 1008.8
20260507220528 60 0 0.0 9.0 0.00 0.17 0.17 60 1008.7
20260507220038 60 216 0.0 9.0 0.00 0.17 0.17 60 1008.7
20260507215529 61 0 2.0 8.0 0.00 0.17 0.17 58 1008.5
20260507215026 61 0 0.0 7.0 0.00 0.17 0.17 57 1008.5
20260507214537 61 0 1.0 7.0 0.00 0.17 0.17 57 1008.6
20260507214028 62 0 0.0 6.0 0.00 0.17 0.17 55 1008.4
20260507213526 63 0 0.0 4.0 0.00 0.17 0.17 54 1008.5
20260507213343 63 250 1.0 4.0 0.00 0.17 0.17 54 1008.2
20260507213051 63 0 0.0 5.0 0.00 0.17 0.17 52 1008.5
20260507212914 64 250 0.0 5.0 0.00 0.17 0.17 51 1008.1
20260507212526 64 0 0.0 5.0 0.00 0.17 0.17 42 1008.6
20260507212351 64 252 1.0 5.0 0.00 0.17 0.17 43 1008.1
20260507212026 64 220 0.0 9.0 0.00 0.17 0.17 43 1008.6
20260507211832 65 243 0.0 6.0 0.00 0.17 0.17 42 1008.1
20260507211542 64 0 1.0 9.0 0.00 0.17 0.17 41 1008.6
20260507211347 65 242 0.0 8.0 0.00 0.17 0.17 45 1008.2
20260507211030 64 0 1.0 9.0 0.00 0.17 0.17 41 1008.6
20260507210842 65 13 1.0 7.0 0.00 0.17 0.17 44 1008.2
20260507210528 64 0 1.0 7.0 0.00 0.17 0.17 43 1008.7
20260507210339 65 14 1.0 7.0 0.00 0.17 0.17 43 1008.2
20260507210047 64 0 0.0 6.0 0.00 0.17 0.17 42 1008.7
20260507205833 65 165 0.0 5.0 0.00 0.17 0.17 43 1008.3
20260507205526 64 34 0.0 5.0 0.00 0.17 0.17 43 1008.7
20260507205351 65 36 1.0 5.0 0.00 0.17 0.17 44 1008.2
20260507205026 64 0 0.0 3.0 0.00 0.17 0.17 42 1008.5
20260507204904 65 185 0.0 3.0 0.00 0.17 0.17 42 1008.2
20260507204538 64 0 0.0 3.0 0.00 0.17 0.17 42 1008.7
20260507204343 65 98 0.0 0.0 0.00 0.17 0.17 41 1008.2
20260507204027 64 0 0.0 3.0 0.00 0.17 0.17 42 1008.5
20260507203840 64 100 0.0 1.0 0.00 0.17 0.17 42 1008.1
20260507203526 64 0 0.0 4.0 0.00 0.17 0.17 42 1008.6
20260507203335 64 254 0.0 5.0 0.00 0.17 0.17 40 1008.1
20260507203045 64 0 0.0 4.0 0.00 0.17 0.17 46 1008.7
20260507202835 64 11 1.0 5.0 0.00 0.17 0.17 46 1008.2
20260507202525 64 0 0.0 6.0 0.00 0.17 0.17 45 1008.6
20260507202349 64 65 0.0 6.0 0.00 0.17 0.17 45 1008.3
20260507202026 63 0 0.0 6.0 0.00 0.17 0.17 44 1008.6
20260507201903 64 18 1.0 6.0 0.00 0.17 0.17 48 1008.2
20260507201545 63 0 0.0 3.0 0.00 0.17 0.17 49 1008.6
20260507201343 64 169 0.0 3.0 0.00 0.17 0.17 47 1008.1
20260507201027 63 0 0.0 3.0 0.00 0.17 0.17 45 1008.5
20260507200839 63 169 0.0 3.0 0.00 0.17 0.17 45 1008.1
20260507200527 63 0 0.0 3.0 0.00 0.17 0.17 47 1008.5
20260507200335 63 88 0.0 3.0 0.00 0.17 0.17 51 1008.1
20260507200048 63 0 0.0 3.0 0.00 0.17 0.17 50 1008.5
20260507195827 63 88 0.0 3.0 0.00 0.17 0.17 51 1008.1
20260507195526 62 0 0.0 3.0 0.00 0.17 0.17 51 1008.6
20260507195327 63 136 0.0 0.0 0.00 0.17 0.17 52 1008.2
20260507195028 62 0 0.0 0.0 0.00 0.17 0.17 51 1008.6
20260507194849 63 152 0.0 0.0 0.00 0.17 0.17 52 1008.1
20260507194611 62 0 0.0 0.0 0.00 0.17 0.17 52 1008.5
20260507194341 62 219 0.0 0.0 0.00 0.17 0.17 51 1008.2
20260507194027 62 0 0.0 4.0 0.00 0.17 0.17 53 1008.8
20260507193842 62 219 0.0 4.0 0.00 0.17 0.17 50 1008.3
20260507193526 62 0 0.0 4.0 0.00 0.17 0.17 50 1009.0
20260507193337 62 221 1.0 4.0 0.00 0.17 0.17 50 1008.5
20260507193041 62 0 0.0 3.0 0.00 0.17 0.17 52 1009.2
20260507192833 62 175 0.0 3.0 0.00 0.17 0.17 51 1008.7
20260507192525 62 0 0.0 7.0 0.00 0.17 0.17 50 1009.2
20260507192347 62 100 0.0 6.0 0.00 0.17 0.17 52 1008.7
20260507192026 62 0 1.0 7.0 0.00 0.17 0.17 51 1009.3
20260507191844 62 215 3.0 6.0 0.00 0.17 0.17 50 1008.8
20260507191537 62 254 0.0 6.0 0.00 0.17 0.17 52 1009.3
20260507191345 62 123 0.0 4.0 0.00 0.17 0.17 51 1008.9
20260507191026 61 0 0.0 6.0 0.00 0.17 0.17 51 1009.4
20260507190838 62 162 0.0 6.0 0.00 0.17 0.17 56 1009.1
20260507190526 61 0 0.0 6.0 0.00 0.17 0.17 52 1009.5
20260507190333 62 181 0.0 1.0 0.00 0.17 0.17 53 1009.1
20260507190038 61 0 0.0 5.0 0.00 0.17 0.17 52 1009.5
20260507185909 61 181 0.0 4.0 0.00 0.17 0.17 51 1009.0
20260507185524 61 0 0.0 5.0 0.00 0.17 0.17 52 1009.4
20260507185342 61 87 1.0 5.0 0.00 0.17 0.17 51 1009.0
20260507185022 61 0 0.0 5.0 0.00 0.17 0.17 50 1009.4
20260507184856 61 109 1.0 5.0 0.00 0.17 0.17 51 1009.1
20260507184543 61 102 0.0 5.0 0.00 0.17 0.17 51 1009.6
20260507184337 61 134 0.0 5.0 0.00 0.17 0.17 52 1009.1
20260507184023 61 0 0.0 5.0 0.00 0.17 0.17 53 1009.6
20260507183832 61 179 0.0 4.0 0.00 0.17 0.17 52 1009.3
20260507183524 61 0 0.0 4.0 0.00 0.17 0.17 55 1009.7
20260507183407 61 179 1.0 4.0 0.00 0.17 0.17 55 1009.4
20260507183045 61 0 0.0 4.0 0.00 0.17 0.17 52 1009.8
20260507182859 61 133 0.0 4.0 0.00 0.17 0.17 51 1009.5
20260507182522 61 0 0.0 6.0 0.00 0.17 0.17 51 1009.9
20260507182335 61 254 0.0 4.0 0.00 0.17 0.17 51 1009.6
20260507182025 61 0 0.0 6.0 0.00 0.17 0.17 51 1009.9
20260507181850 61 179 1.0 6.0 0.00 0.17 0.17 51 1009.6
20260507181547 61 0 1.0 6.0 0.00 0.17 0.17 53 1010.0
20260507181341 61 225 2.0 5.0 0.00 0.17 0.17 54 1009.7
20260507181026 61 0 0.0 8.0 0.00 0.17 0.17 53 1010.0
20260507180902 61 182 0.0 7.0 0.00 0.17 0.17 51 1009.7
20260507180521 61 0 0.0 8.0 0.00 0.17 0.17 50 1010.1
20260507180337 61 227 1.0 7.0 0.00 0.17 0.17 51 1009.8
20260507180040 61 0 0.0 0.0 0.00 0.17 0.17 54 1010.1
20260507175835 61 23 0.0 0.0 0.00 0.17 0.17 51 1009.8
20260507175526 61 0 0.0 0.0 0.00 0.17 0.17 50 1010.1
20260507175349 61 30 0.0 0.0 0.00 0.17 0.17 50 1009.9
20260507175025 61 0 0.0 5.0 0.00 0.17 0.17 50 1010.2
20260507174844 61 96 0.0 3.0 0.00 0.17 0.17 53 1010.0
20260507174549 61 0 0.0 5.0 0.00 0.17 0.17 51 1010.4
20260507174338 61 92 0.0 5.0 0.00 0.17 0.17 54 1010.1
20260507174022 61 0 0.0 5.0 0.00 0.17 0.17 51 1010.4
20260507173853 61 109 0.0 5.0 0.00 0.17 0.17 50 1010.2
20260507173522 61 0 0.0 5.0 0.00 0.17 0.17 54 1010.6
20260507173347 61 115 0.0 2.0 0.00 0.17 0.17 56 1010.4
20260507173113 60 0 0.0 2.0 0.00 0.17 0.17 56 1010.8
20260507172842 60 88 0.0 2.0 0.00 0.17 0.17 54 1010.5
20260507172522 60 0 0.0 4.0 0.00 0.17 0.17 55 1010.8
20260507172336 60 126 0.0 4.0 0.00 0.17 0.17 57 1010.5
20260507172022 59 0 0.0 4.0 0.00 0.17 0.17 51 1010.8
20260507171851 60 225 1.0 4.0 0.00 0.17 0.17 54 1010.7
20260507171548 60 0 0.0 7.0 0.00 0.17 0.17 53 1010.9
20260507171346 60 150 0.0 6.0 0.00 0.17 0.17 53 1010.6
20260507171023 60 0 1.0 7.0 0.00 0.17 0.17 52 1010.9
20260507170842 60 169 1.0 6.0 0.00 0.17 0.17 54 1010.7
20260507170522 59 196 0.0 4.0 0.00 0.17 0.17 53 1011.1
20260507170334 59 185 0.0 3.0 0.00 0.17 0.17 56 1010.9
20260507170043 59 0 0.0 2.0 0.00 0.17 0.17 58 1011.1
20260507165851 59 106 0.0 2.0 0.00 0.17 0.17 56 1011.0
20260507165522 58 0 0.0 2.0 0.00 0.17 0.17 58 1011.2
20260507165344 58 151 0.0 2.0 0.00 0.17 0.17 57 1010.9
20260507165022 57 0 0.0 0.0 0.00 0.17 0.17 57 1011.2
20260507164845 58 267 0.0 0.0 0.00 0.17 0.17 59 1011.0
20260507164548 57 0 0.0 0.0 0.00 0.17 0.17 59 1011.3
20260507164337 57 267 0.0 0.0 0.00 0.17 0.17 60 1011.1
20260507164022 57 0 0.0 0.0 0.00 0.17 0.17 54 1011.4
20260507163838 57 265 0.0 0.0 0.00 0.17 0.17 58 1011.3
20260507163522 57 0 0.0 0.0 0.00 0.17 0.17 59 1011.5
20260507163351 57 223 0.0 0.0 0.00 0.17 0.17 63 1011.4
20260507163039 56 0 0.0 0.0 0.00 0.17 0.17 59 1011.6
20260507162906 56 158 0.0 0.0 0.00 0.17 0.17 64 1011.4
20260507162523 55 0 0.0 0.0 0.00 0.17 0.17 63 1011.7
20260507162359 56 87 0.0 0.0 0.00 0.17 0.17 63 1011.6
20260507162023 55 0 0.0 0.0 0.00 0.17 0.17 60 1011.9
20260507161850 55 87 0.0 0.0 0.00 0.17 0.17 65 1011.6
20260507161554 55 0 0.0 0.0 0.00 0.17 0.17 65 1011.9
20260507161345 55 86 0.0 0.0 0.00 0.17 0.17 65 1011.7
20260507161023 55 0 0.0 0.0 0.00 0.17 0.17 68 1012.1
20260507160837 55 86 0.0 0.0 0.00 0.17 0.17 63 1011.9
20260507160524 55 0 0.0 0.0 0.00 0.17 0.17 61 1012.1
20260507160350 55 86 0.0 0.0 0.00 0.17 0.17 67 1011.8
20260507160040 54 0 0.0 2.0 0.00 0.17 0.17 66 1012.1
20260507155845 55 86 0.0 2.0 0.00 0.20 0.17 66 1011.9
20260507155523 54 0 0.0 2.0 0.00 0.20 0.17 62 1012.2
20260507155339 55 86 0.0 2.0 0.00 0.20 0.17 63 1012.0
20260507155024 54 0 0.0 0.0 0.00 0.20 0.17 71 1012.2
20260507154837 55 46 0.0 0.0 0.00 0.20 0.17 66 1012.0
20260507154541 54 0 0.0 0.0 0.00 0.20 0.17 67 1012.3
20260507154333 54 46 0.0 0.0 0.00 0.20 0.17 67 1012.1
20260507154027 54 0 0.0 2.0 0.00 0.20 0.17 65 1012.4
20260507153833 54 45 0.0 2.0 0.00 0.20 0.17 66 1012.2
20260507153525 54 0 0.0 2.0 0.00 0.20 0.17 65 1012.5
20260507153347 54 45 0.0 2.0 0.00 0.20 0.17 65 1012.2
20260507153045 53 0 0.0 2.0 0.00 0.20 0.17 64 1012.5
20260507152845 54 71 0.0 0.0 0.00 0.20 0.17 66 1012.1
20260507152526 53 0 0.0 0.0 0.00 0.20 0.17 65 1012.4
20260507152404 54 71 0.0 0.0 0.00 0.20 0.17 68 1012.1
20260507152025 53 0 0.0 0.0 0.00 0.20 0.17 66 1012.4
20260507151837 53 71 0.0 0.0 0.00 0.20 0.17 69 1012.2
20260507151538 53 0 0.0 2.0 0.00 0.20 0.17 71 1012.4
20260507151352 53 65 0.0 2.0 0.00 0.20 0.17 66 1012.3
20260507151024 52 0 0.0 2.0 0.00 0.20 0.17 67 1012.6
20260507150848 53 58 0.0 2.0 0.00 0.20 0.17 67 1012.4
20260507150524 52 0 0.0 0.0 0.00 0.20 0.17 71 1012.6
20260507150341 53 13 0.0 0.0 0.00 0.20 0.17 71 1012.4
20260507150041 52 0 0.0 0.0 0.00 0.20 0.17 73 1012.7
20260507145843 52 334 0.0 0.0 0.00 0.25 0.17 74 1012.5
20260507145523 52 0 0.0 0.0 0.00 0.25 0.17 75 1012.8
20260507145339 52 17 0.0 0.0 0.00 0.25 0.17 73 1012.5
20260507145024 51 0 0.0 0.0 0.00 0.25 0.17 72 1012.8
20260507144838 52 17 0.0 0.0 0.00 0.25 0.17 71 1012.5
20260507144537 51 0 0.0 0.0 0.00 0.25 0.17 69 1012.8
20260507144413 52 15 0.0 0.0 0.00 0.25 0.17 76 1012.5
20260507144024 51 0 0.0 0.0 0.00 0.25 0.17 76 1012.9
20260507143846 51 15 0.0 0.0 0.00 0.25 0.17 74 1012.6
20260507143524 51 0 0.0 0.0 0.00 0.25 0.17 75 1012.9
20260507143339 51 15 0.0 0.0 0.00 0.25 0.17 73 1012.7
20260507143039 50 0 0.0 0.0 0.00 0.25 0.17 71 1013.1
20260507142853 51 94 0.0 0.0 0.00 0.25 0.17 75 1012.7
20260507142524 50 0 0.0 0.0 0.00 0.25 0.17 74 1013.0
20260507142349 50 103 0.0 0.0 0.00 0.25 0.17 84 1012.7
20260507142023 50 0 0.0 0.0 0.00 0.25 0.17 83 1013.0
20260507141843 50 118 0.0 0.0 0.00 0.25 0.17 83 1012.8
20260507141557 50 0 0.0 0.0 0.00 0.25 0.17 80 1013.2
20260507141337 50 118 0.0 0.0 0.00 0.25 0.17 81 1012.9
20260507141024 50 0 0.0 1.0 0.00 0.25 0.17 78 1013.3
20260507140852 50 118 0.0 1.0 0.00 0.25 0.17 80 1012.9
20260507140525 50 0 0.0 1.0 0.00 0.25 0.17 84 1013.2
20260507140325 50 118 0.0 1.0 0.00 0.25 0.17 84 1012.9
20260507140042 49 0 0.0 0.0 0.00 0.25 0.17 84 1013.2
20260507135845 50 175 0.0 0.0 0.00 0.39 0.17 82 1012.9
20260507135524 49 0 0.0 0.0 0.00 0.38 0.17 82 1013.4
20260507135343 50 175 0.0 0.0 0.00 0.39 0.17 83 1013.0
20260507135024 49 0 0.0 0.0 0.00 0.38 0.17 81 1013.4
20260507134837 50 175 0.0 0.0 0.00 0.39 0.17 82 1013.0
20260507134541 49 0 0.0 0.0 0.00 0.38 0.17 80 1013.3